www.pogodaiklimat.ru

АРХИВ ПОГОДЫ в Toronto

Время (UTC), дата Ветер
(напр.,м/с)
 
Видим.   Явления Облачность Т
(С)
Тd
(С)
f
(%)
Тe
(С)
Тes
(С)
Комфортность P
(гПа)
Po
(гПа)
Тmin
(С)
Tmax
(С)
R
(мм)
S
(см)
15 11.01 ЮЗ 6 24 км 6/0
[]
+2.0 -4.3 63 -3 -3 тепло 1019.2 997.9
18 11.01 ЮЗ 5 24 км 10/1 600 м
[Cu hum As op Cs]
+3.2 -2.8 65 -2 -1 тепло 1017.2 995.9 -0.1 +6.5
21 11.01 ЮВ 3 24 км 10/0
[]
+4.5 -2.2 62 +1 +1 тепло 1014.7 993.4
00 12.01 ЮВ 3 24 км 9/4 600 м
[Sc As op]
+4.8 -1.6 63 +2 +2 тепло 1012.6 991.3 +0.8 +5.1
03 12.01 ЮВ 3 24 км 10/10 1000 м
[]
+5.0 +0.4 72 +2 +2 тепло 1009.1 987.9
06 12.01 Ю 3 9000 м ливневой дождь 10/10 200 м
[Cu med, cong]
+7.2 +6.6 96 +4 +4 тепло 1005.7 984.7 +0.8 +7.3 6 73
09 12.01 З 2 4000 м 10/10 300 м
[]
+7.1 +6.7 97 +5 +5 тепло 1004.4 983.4
12 12.01 С 8 16 км в посл. час морось {ливн. осадки, дождь} 10/10 100 м
[St]
+2.9 +2.3 96 -4 -4 тепло 1007.9 986.8 +2.9 +7.3 9 <0.5
15 12.01 С 6 24 км 10/10 200 м
[]
+2.0 +0.4 89 -4 -4 тепло 1010.5 989.3
18 12.01 СВ 1 19 км слабый дождь 10/1 300 м
[Frnb As op]
+2.4 +1.1 91 +1 +1 тепло 1010.2 989.1 +2.0 +8.9 0.8 <0.5
21 12.01 СЗ 5 24 км 10/10 300 м
[]
+2.5 +0.9 89 -3 -3 тепло 1013.7 992.5
00 13.01 СЗ 4 24 км {дождь} 10/10 300 м
[Cu Sc]
+0.9 -1.7 83 -4 -4 тепло 1018.5 997.1 +0.7 +3.0 0.0 <0.5
03 13.01 З 9 24 км 8/8 600 м
[]
-0.5 -5.1 71 -8 -8 по сезону 1023.0 1001.4
06 13.01 З 8 24 км 6/6 600 м
[Sc]
-2.1 -7.1 69 -10 -10 по сезону 1025.3 1003.7 -2.3 +8.9 51
09 13.01 З 9 24 км 6/6 1000 м
[]
-3.4 -11.0 56 -12 -12 по сезону 1030.8 1009.0
12 13.01 З 8 24 км 3/1 1000 м
[Sc Ci fib]
-4.7 -12.7 54 -13 -13 по сезону 1034.9 1013.0 -4.7 +8.9 <0.5
15 13.01 З 8 24 км 9/9 1000 м
[]
-3.6 -12.1 52 -11 -11 по сезону 1038.6 1016.6
18 13.01 СЗ 6 24 км слабый ливневой снег 10/6 1000 м
[Cu hum Ci fib]
-2.9 -11.2 53 -10 -9 по сезону 1039.3 1017.3 -5.4 -1.6 0.0 <0.5
21 13.01 СЗ 6 19 км 10/10 600 м
[]
-3.8 -12.3 52 -11 -11 по сезону 1041.1 1019.0
00 14.01 С 5 24 км слабый ливневой снег 9/9 600 м
[Cu Sc]
-6.1 -11.3 67 -13 -13 по сезону 1043.0 1020.8 -6.2 -2.8 0.0 <0.5
03 14.01 С 5 24 км 5/5 600 м
[]
-7.0 -12.9 63 -14 -14 по сезону 1042.8 1020.6
06 14.01 СВ 3 24 км {ливн. осадки} 4/0
[Ac trans Ci fib]
-8.5 -13.2 69 -14 -14 по сезону 1041.6 1019.4 -8.8 -1.6 0.0 81
09 14.01 СВ 2 24 км 10/10 600 м
[]
-8.6 -14.8 61 -12 -12 по сезону 1039.9 1017.7
12 14.01 СВ 3 24 км слабый снег 10/10 300 м
[Sc]
-8.8 -14.6 63 -15 -15 по сезону 1037.9 1015.7 -9.1 -1.6 0.0 <0.5
15 14.01 СВ 3 24 км 9/9 300 м
[]
-7.3 -12.8 65 -12 -12 по сезону 1036.2 1014.0
18 14.01 С 1 24 км {снег} 10/1 600 м
[Cu hum Ac As Ci sp]
-4.9 -9.8 68 -5 -3 по сезону 1031.8 1009.7 -9.1 -4.9 0.0 <0.5
21 14.01 ЮЗ 2 24 км 9/9 600 м
[]
-3.4 -8.5 68 -6 -6 по сезону 1029.4 1007.4
00 15.01 ЮЗ 2 24 км ясно -4.4 -8.4 74 -8 -8 по сезону 1028.7 1006.7 -9.1 -3.3
03 15.01 З 2 24 км 1/0
[]
-4.8 -8.8 74 -8 -8 по сезону 1028.7 1006.7
06 15.01 З 2 24 км 9/9 600 м
[Sc]
-5.6 -8.9 78 -10 -10 по сезону 1028.4 1006.5 -9.1 -3.3
09 15.01 З 3 24 км 9/9 600 м
[]
-6.7 -9.4 81 -12 -12 по сезону 1028.6 1006.7
12 15.01 З 4 24 км 1/1 600 м
[Sc]
-5.4 -8.8 77 -11 -11 по сезону 1029.6 1007.7 -7.2 -3.3
15 15.01 З 3 24 км 9/9 600 м
[]
-2.2 -6.1 75 -7 -7 по сезону 1031.0 1009.1
18 15.01 З 2 24 км 9/9 600 м
[Sc]
-0.6 -7.0 62 -3 -3 тепло 1029.6 1007.7 -7.2 -0.6
21 15.01 З 4 24 км 9/9 1000 м
[]
-0.3 -7.4 59 -5 -5 по сезону 1028.9 1007.0
00 16.01 ЮЗ 2 24 км ясно -2.0 -8.3 62 -5 -5 по сезону 1029.1 1007.2 -7.2 -0.1
03 16.01 ЮЗ 3 24 км ясно -3.0 -6.7 76 -8 -8 по сезону 1028.7 1006.9
06 16.01 ЮЗ 4 24 км ясно -5.3 -8.1 81 -11 -11 по сезону 1028.2 1006.4 -7.2 -0.1
09 16.01 ЮЗ 3 19 км ясно -5.7 -7.8 85 -11 -11 по сезону 1028.2 1006.4
12 16.01 Ю 1 19 км ясно -5.2 -7.8 82 -8 -8 по сезону 1028.2 1006.4 -6.3 -0.1 <0.5
15 16.01 ЮЗ 5 24 км 8/0
[]
-1.2 -5.3 74 -7 -6 по сезону 1028.1 1006.3
18 16.01 З 7 19 км 9/0
[Ci sp]
+1.6 -6.0 57 -4 -3 тепло 1026.5 1004.8 -6.3 +1.8
21 16.01 З 3 19 км 9/0
[]
+1.9 -6.7 53 -2 -2 тепло 1025.3 1003.6
00 17.01 ЮВ 1 24 км 10/0
[Ac trans Ci sp]
+0.7 -6.9 57 -1 -1 тепло 1025.4 1003.7 -6.3 +2.6
03 17.01 С 1 24 км 9/0
[]
-0.2 -6.6 62 -0 -0 тепло 1024.6 1002.9
06 17.01 В 1 24 км 9/0
[Ac As]
+0.4 -5.8 63 -1 -1 тепло 1022.3 1000.8 -6.3 +2.6 18
09 17.01 СВ 2 16 км 10/10 1500 м
[]
+0.4 -2.7 80 -2 -2 тепло 1021.3 999.8
12 17.01 В 5 12 км слабый дождь 10/10 300 м
[Sc]
+1.0 +0.1 94 -5 -5 тепло 1018.3 996.8 -0.7 +2.6 1 <0.5
15 17.01 В 6 6000 м 10/10 200 м
[]
+1.3 +0.1 92 -5 -5 тепло 1015.7 994.3
18 17.01 В 7 8000 м слабый дождь 10/10 100 м
[Sc]
+1.2 +0.2 93 -6 -6 по сезону 1011.9 990.6 -0.7 +1.5 8 <0.5
21 17.01 В 5 4800 м 10/10 100 м
[]
+1.7 +1.0 95 -4 -4 тепло 1010.1 988.8
00 18.01 СВ 3 9000 м слабая морось {дождь} 10/10 50 м
[St]
+1.0 +0.3 95 -3 -3 тепло 1010.3 989.0 -0.3 +1.7 1 <0.5
03 18.01 С 2 9000 м 10/10 100 м
[]
+1.0 +0.4 96 -3 -3 тепло 1010.1 988.8
06 18.01 ЮЗ 2 6000 м дождь {морось} 10/10 200 м
[St]
+0.9 +0.3 96 -2 -2 тепло 1010.2 988.9 -0.3 +1.7 2 171
09 18.01 ЮЗ 2 400 м н/о +1.2 +0.6 96 -2 -2 тепло 1011.2 989.9
12 18.01 З 3 16 км {дождь, морось} 10/10 300 м
[Sc]
+1.7 +1.1 96 -3 -3 тепло 1012.9 991.6 +0.6 +1.7 0.4 <0.5

 

Местоположение метеостанции Toronto (Канада): широта 43.67 долгота -79.63 высота над уровнем моря 173 м.

В архиве по умолчанию представлена погода в Toronto за последнюю неделю. Архивные данные за месяц целиком и за предыдущие месяцы, начиная с января 2011 года, Вы можете получить, выбрав интересующий диапазон дат из раскрывающегося списка и нажав кнопку "Ввод!".

Внимание! Время в таблицах - всемирное. Для получения местного времени необходимо прибавить поправку, которая в Toronto равна -5 ч.

Ветер - указаны скорость ветра в м/с - средняя за 10 мин, порывы в срок и между сроками (в фигурных скобках) и направление, откуда дует ветер: С - северный, СВ - северо-восточный, В - восточный, ЮВ - юго-восточный, Ю - южный, ЮЗ - юго-западный, З - западный, СЗ - северо-западный.
Видимость - горизонтальная дальность видимости в метрах или километрах. При видимости от 1 до 10 км при отсутствии осадков обычно наблюдается дымка, при ухудшении видимости до 1 км и менее - туман. В сухую погоду видимость может ухудшаться дымом, пылью или мглою.
Явления - указаны атмосферные явления, наблюдавшиеся в срок или в последний час перед сроком; фигурными скобками обозначены явления, наблюдавшиеся между сроками (за 1-3 часа до срока); квадратными скобками обозначены град или гололедные отложения с указанием их диаметра в мм.
Облачность - указаны через наклонную черту общая и нижняя облачность в баллах и высота нижней границы облаков в метрах; квадратными скобками обозначены формы облаков: Ci - перистые, Cs - перисто-слоистые, Cc - перисто-кучевые, Ac - высококучевые, As - высокослоистые, Sc - слоисто-кучевые, Ns - слоисто-дождевые, Cu - кучевые, Cb - кучево-дождевые. Подробнее классификацию облаков см. в Атласе облаков (PDF).
T - Температура воздуха - температура, измеренная на высоте 2 м над землей.
Td - Температура точки росы - температура, при понижении до которой содержащийся в воздухе водяной пар достигнет насыщения.
f - Относительная влажность воздуха - влажноcть воздуха, измеренная на высоте 2 м над землей.
Te - Эффективная температура - температура, которую ощущает одетый по сезону человек в тени. Характеристика душности погоды. При расчете учитывается влияние влажности воздуха и скорости ветра на теплоощущения человека.
Tes - Эффективная температура на солнце - температура, которую ощущает человек, с поправкой на солнечный нагрев. Характеристика знойности погоды. Зависит от высоты солнца над горизонтом, облачности и скорости ветра. Ночью, в пасмурную погоду, а также при ветре 12 м/с и более поправка равна нулю.
P - Атмосферное давление - приведенное к уровню моря атмосферное давление.
Po - Атмосферное давление - измеренное на уровне метеостанции атмосферное давление.
Tmin - Минимальная температура - минимум температуры воздуха на высоте 2 м над землей.
Tmax - Максимальная температура - максимум температуры воздуха на высоте 2 м над землей.
R - Количество осадков - Количество выпавших осадков, мм. При наведении курсора мыши на число - период времени, за который выпало указанное количество осадков.
S - Снежный покров - Высота снежного покрова, см. При наведении курсора мыши на число - состояние снежного покрова и степень покрытия местности в баллах.